Location: ?p Hi?n An
(16.5000°N, 107.3833°E)
Time: 19:42:11
(UTC+00:00)

Daily predictions for brighter satellites

Satellite Brightness Start Highest point End
(mag) Time Altitude Azimuth Time Altitude Azimuth Time Altitude Azimuth
USA 238 DEB 3.4 12:01:14 10° SSW 12:07:41 74° ESE 12:08:36 64° ENE
USA 238 3.4 12:01:20 10° SSW 12:07:47 73° ESE 12:08:39 64° ENE
CZ-2C R/B 3.6 12:02:40 10° S 12:08:05 61° WSW 12:13:13 10° NNW
Nadezhda 3 Rocket 4.1 12:02:08 10° S 12:08:26 78° W 12:12:52 21° N
Helios 1A Rocket 3.9 12:04:46 10° S 12:08:38 44° W 12:12:29 10° NNW
Meteor 1-10 Rocket 4.1 12:04:13 10° S 12:10:02 88° E 12:10:55 66° N
CZ-2C R/B 2.9 12:24:22 62° W 12:24:22 62° W 12:29:12 10° SSW
Intelsat 5-2 Rocket 4.4 12:29:32 10° WNW 12:38:44 59° WNW 12:38:44 59° WNW
CZ-4 R/B 4.3 12:39:10 10° SW 12:41:11 14° W 12:43:12 10° WNW
Atlas Centaur 2 4.0 20:10:12 28° E 20:10:12 28° E 20:12:46 10° ENE
Cosmos 2237 Rocket 3.8 20:17:11 30° E 20:17:11 30° E 20:21:13 10° SE
Hubble Space Telescope 4.1 20:22:55 10° E 20:22:55 10° E 20:23:00 10° E
ATLAS CENTAUR Rocket 4.3 20:25:08 15° SE 20:25:08 15° SE 20:26:00 10° SE
ADEOS Rocket 4.0 20:27:58 10° SE 20:33:15 41° ENE 20:35:06 33° NE
Cosmos 1980 4.5 20:35:12 48° ESE 20:35:12 48° ESE 20:39:42 10° SSE
SWIFT 4.4 20:44:58 25° ESE 20:44:58 25° ESE 20:46:51 10° ESE
Skynet4D Del rocket 4.3 20:43:01 71° N 20:43:20 72° NNE 20:50:37 10° ESE
NOSS 3-4 (A) 4.0 20:40:01 10° S 20:45:42 50° ESE 20:51:21 10° NE
NOSS 3-4 (C) 4.1 20:40:09 10° S 20:45:50 49° ESE 20:51:28 10° NE
SJ 16-02 4.4 20:53:04 10° SE 20:55:23 14° E 20:57:43 10° ENE
Aurora 2 Rocket 4.4 20:54:59 42° WSW 20:59:20 84° SSE 21:08:05 10° ENE
ADEOS 4.0 20:57:35 10° NNE 21:02:44 61° ESE 21:07:51 10° S
SL-16 R/B 4.1 20:58:39 10° NNE 21:03:21 27° ENE 21:08:02 10° SE
ATLAS 2AS CENTAUR R/B 3.5 20:56:57 10° S 21:04:28 61° ESE 21:12:15 10° NE
Meteor 1-31 Rocket 4.3 21:01:59 10° NNE 21:05:28 34° E 21:08:56 10° SSE
Lacrosse 5 2.4 21:03:20 19° SSW 21:06:47 57° ESE 21:11:45 10° NE
Cosmos 1777 Rocket 3.8 21:02:28 10° SSW 21:07:40 88° WNW 21:12:51 10° NNE
CZ-4C R/B 4.2 21:05:35 10° SSE 21:08:54 21° ESE 21:12:23 10° ENE
Cosmos 1745 Rocket 3.9 21:06:24 10° S 21:12:35 87° W 21:18:52 10° N
SPELTRA 4.2 21:12:04 29° SSW 21:13:46 38° SSE 21:24:24 10° E
Lacrosse 5 rocket 3.2 21:17:25 21° SSW 21:17:25 21° SSW 21:19:14 10° S
SL-08 ROCKET BODY 4.3 21:11:30 10° SSW 21:17:24 61° W 21:23:23 10° N
Cosmos 1867 3.5 21:18:05 60° W 21:18:32 63° WSW 21:23:51 10° SSE
GPS 2-14 Rocket1 2.9 21:19:06 65° S 21:19:06 65° S 21:22:55 10° ESE
USA 234 3.3 21:14:24 10° NNE 21:20:43 53° NW 21:23:12 36° WSW
FALCON 9 DEB 3.9 21:24:10 45° SE 21:24:21 45° SE 21:27:24 10° NE
Cosmos 2263 Rocket 2.1 21:22:15 10° SSW 21:27:47 64° WNW 21:33:23 10° N
METEOR-M 4.0 21:24:05 10° N 21:29:25 80° WNW 21:34:44 10° SSW
Milstar 3 Cent rocket 3.7 21:28:40 31° NW 21:31:54 44° N 21:45:00 10° ENE
Fermi 3.5 21:34:18 59° W 21:34:59 82° NNW 21:39:02 10° ENE
Cosmos 2221 2.6 21:36:37 48° WNW 21:37:02 50° W 21:41:09 10° SSW
ALOS 2.5 21:35:24 27° NNW 21:37:26 44° WNW 21:41:51 10° SSW
Cosmos 1709 Rocket 4.1 21:32:13 10° S 21:38:30 82° E 21:44:52 10° N
H-2A R/B 2.3 21:41:20 10° S 21:45:23 44° WSW 21:46:45 32° NW
SJ-12 3.8 21:42:23 10° N 21:46:26 86° W 21:50:28 10° SSW
Landsat 5 4.4 21:43:30 10° SSW 21:46:07 26° WSW 21:46:07 26° WSW
Cosmos 1633 2.5 21:51:29 10° S 21:55:01 78° E 21:58:30 10° N
deb Chang Zheng 4 3.9 21:51:10 10° N 21:55:13 40° WNW 21:59:17 10° SW
Atlas Centaur 2 2.5 21:52:51 23° W 21:56:15 44° NNW 22:01:02 10° NE
Cosmos 2237 Rocket 3.5 21:59:05 19° W 21:59:56 20° WSW 22:03:53 10° SSW
Hubble Space Telescope 1.2 21:58:15 24° W 22:00:24 51° SSW 22:04:25 10° SE
H-2A R/B 4.0 21:56:53 10° NNE 22:00:36 45° E 22:04:17 10° S
H-2A R/B 3.8 22:02:48 10° SW 22:06:41 52° SE 22:28:00 10° ENE
ERS-2 2.0 22:03:41 10° S 22:07:18 81° W 22:10:56 10° NNW
RESURS DK-1 3.6 22:06:05 10° S 22:10:02 45° ESE 22:14:00 10° NNE
FALCON 9 DEB 4.0 22:10:19 19° W 22:11:34 24° NW 22:14:14 10° N
CZ-4B R/B 1.3 22:08:33 10° S 22:11:47 61° W 22:14:56 10° NNW
Envisat 4.3 22:08:00 10° NNE 22:12:51 45° E 22:17:41 10° S
Cosmos 2151 4.2 22:13:12 10° SW 22:16:15 19° W 22:19:18 10° NW
ADEOS Rocket 4.4 22:15:33 10° SW 22:18:50 16° W 22:22:03 11° WNW
Okean 3 Rocket 4.1 22:17:11 10° SSW 22:21:13 37° W 22:25:15 10° NNW
PSLV R/B 3.8 22:19:46 10° NNE 22:23:35 82° ESE 22:27:18 10° S
SWIFT 3.8 22:20:48 10° WSW 22:24:23 26° SSW 22:27:57 10° SE
Cosmos 773 Rocket 4.0 22:24:17 10° NNW 22:29:32 78° WSW 22:34:44 10° S
GPS 2-12 Rocket1 4.1 22:26:11 10° W 22:30:11 33° SSW 22:34:16 10° SE
Cosmos 1766 Rocket 4.4 22:26:43 10° SW 22:30:38 31° W 22:34:35 10° NNW
Cosmos 1151 Rocket 3.8 22:26:37 10° N 22:30:47 57° E 22:34:59 10° SSE
Cosmos 389 Rocket 3.2 22:28:09 10° NNW 22:31:16 31° W 22:34:25 10° SSW
Centaur AC-64 3.4 22:30:08 10° W 22:33:18 59° N 22:46:02 10° ENE
SJ 16-02 2.3 22:30:01 10° SW 22:33:37 25° WNW 22:37:15 10° NNW
Cosmos 1328 Rocket 4.5 22:30:00 10° N 22:34:19 54° E 22:38:38 10° SSE
COSMO-SKYMED 1 2.5 22:30:20 10° S 22:34:38 70° W 22:38:57 10° NNW
Cosmos 1606 3.2 22:31:43 10° NNW 22:35:13 36° W 22:38:42 10° SSW
Cosmos 1743 Rocket 4.3 22:31:16 10° S 22:35:34 59° E 22:39:55 10° NNE
